Temp
21 22 22 22 22 22 22 22 22 21 21 22 22 21 21 21 21 20 21 20 19 21 22 21 21 21 21 22 22 22 19 19 21 22 22 21 21 21 21 21 21 21 21 20 20 21 21 21 22 22 21 20 20 19 19 19 19 19 19 18 18 18 18 17 17 17 17 16 16 16 16 16 16 16 17 16 16 16 16 16 16 16 16 16 16 16
20 22 21 22 23 22 22 21 21 21 21 22 22 22 21 20 21 20 20 20 19 21 22 20 20 21 21 22 22 20 20 21 22 22 22 22 21 20 21 21 21 21 20 20 20 20 21 22 21 21 20 19 19 19 19 19 19 19 18 18 18 18 18 17 18 18 17 17 16 16 16 16 16 16 16 16 17 16 16 16 16 16 16 16 16 16
21 21 22 22 20 19 20 20 22 22 22 22 22 22 21 20 20 20 20 20 19 21 22 20 20 21 21 21 21 20 20 21 21 21 22 22 21 21 21 21 21 21 21 21 20 19 20 22 21 20 19 19 20 20 20 19 19 19 18 18 18 18 18 17 17 17 18 17 17 16 16 16 16 16 16 16 16 16 16 16 16 16 15 16 16 16
20 21 22 21 19 20 21 20 22 22 22 22 22 21 21 19 20 21 21 20 19 19 20 20 20 21 21 20 21 20 18 19 20 20 21 20 21 22 21 21 21 21 22 21 21 19 18 19 20 19 19 19 19 19 19 19 19 18 18 18 18 18 18 17 17 17 17 17 16 16 16 16 16 16 16 16 16 16 16 16 16 16 15 15 16 16
21 20 19 19 20 21 21 20 22 23 21 21 21 22 21 20 20 21 20 20 19 18 18 20 21 21 21 22 24 22 18 20 21 20 21 21 20 20 20 21 21 21 21 21 22 20 17 16 19 19 19 19 18 18 19 19 19 19 19 18 18 18 17 17 17 17 16 16 16 15 15 15 15 15 15 15 15 15 16 16 16 16 15 15 15 16
21 19 18 20 21 21 22 22 22 22 21 20 21 21 21 22 21 20 21 21 20 20 18 19 21 21 22 23 25 23 22 23 23 22 24 25 23 21 20 21 20 19 20 20 21 19 16 15 18 19 18 17 18 19 19 20 20 20 19 18 18 18 18 17 17 17 16 16 16 15 15 15 15 15 15 15 15 15 15 15 15 15 15 15 15 16
20 18 19 21 21 21 22 22 20 21 21 21 20 19 20 21 22 21 21 21 20 20 17 17 20 21 21 22 24 23 23 24 24 24 26 25 23 21 21 20 19 20 21 21 20 19 16 15 15 16 17 17 18 19 20 19 19 19 18 18 18 18 18 17 17 17 16 16 16 15 15 15 15 14 14 15 15 15 15 15 14 14 15 15 15 16
19 19 19 21 21 21 22 21 20 20 21 21 18 18 19 21 21 21 21 20 19 19 18 17 19 20 20 21 21 21 22 24 25 26 26 23 21 21 20 20 20 21 22 22 22 21 17 14 14 16 17 18 19 19 19 18 19 19 18 18 18 17 17 17 17 17 16 16 16 15 15 15 15 15 15 15 14 14 14 14 14 14 14 15 15 15
18 20 20 20 21 21 21 20 18 20 22 20 17 17 19 20 20 20 21 20 18 18 19 19 18 19 20 21 20 20 22 24 26 27 26 23 21 20 20 21 22 21 19 18 20 20 15 13 15 17 18 18 19 18 18 18 19 18 18 18 17 17 17 17 17 16 16 16 16 15 15 15 15 15 15 14 14 14 14 14 14 14 14 14 14 14
17 17 18 20 21 21 19 16 16 20 22 18 16 17 18 18 18 19 20 20 18 18 20 20 19 20 20 21 21 21 22 24 26 26 24 22 21 21 21 23 22 20 18 18 18 15 13 14 17 17 17 18 18 18 18 18 18 18 18 17 17 17 17 17 16 16 16 15 15 15 15 14 14 14 14 14 14 14 14 14 14 14 14 14 14 14
16 15 16 18 19 18 16 15 15 18 18 17 18 19 19 19 18 18 18 18 19 19 19 18 18 19 20 21 22 22 23 24 24 25 23 22 22 22 22 22 21 21 21 20 19 15 13 16 18 17 17 17 17 18 17 17 17 17 17 17 17 17 17 16 16 16 16 15 15 15 15 14 14 14 14 13 13 13 14 13 14 14 14 13 13 14
17 17 16 16 16 15 17 17 16 15 16 18 20 20 20 20 19 19 18 18 19 20 19 16 15 18 19 20 22 22 22 21 22 24 24 24 23 23 22 22 21 21 21 21 21 18 15 15 17 17 17 17 17 18 17 17 17 17 17 17 17 17 16 16 16 16 15 15 15 15 15 14 14 14 14 14 14 14 14 14 14 14 13 13 13 13
18 17 16 16 15 16 19 19 17 17 18 19 20 20 20 19 19 19 19 18 19 19 17 15 16 18 19 20 22 23 23 21 21 23 23 24 24 24 23 22 20 20 20 21 21 19 18 16 14 16 17 17 17 18 17 17 17 17 17 16 16 16 16 16 15 15 15 15 15 15 15 14 14 14 14 14 14 14 14 14 14 13 13 13 13 13
18 17 16 17 17 17 19 19 18 18 18 19 20 20 20 19 19 19 18 17 18 18 16 15 17 19 19 20 21 22 23 22 21 22 22 22 23 23 23 22 21 20 20 21 19 20 19 14 12 15 17 17 17 17 17 17 17 17 16 16 16 16 16 16 15 15 15 15 15 15 15 14 14 14 14 14 14 14 14 14 14 13 13 13 13 13
18 18 17 18 18 17 18 19 19 19 18 18 19 19 20 19 19 20 19 19 19 18 16 16 18 20 20 21 20 20 20 19 19 20 20 21 21 20 20 20 21 21 21 21 20 21 17 10 11 16 16 17 18 17 17 17 17 16 16 16 16 16 16 15 15 15 15 15 15 15 15 14 14 14 14 14 14 14 14 13 13 13 13 13 13 13
17 18 17 16 16 17 18 18 18 19 18 17 16 18 19 19 20 19 17 17 18 17 17 17 18 19 19 21 20 19 20 19 18 19 21 22 21 20 21 22 22 22 22 21 21 22 17 10 11 15 16 18 19 18 17 17 16 16 16 16 15 16 15 15 15 15 15 15 14 14 14 14 14 14 14 14 14 13 13 13 13 13 13 13 13 13
17 17 16 15 16 16 17 18 17 18 19 17 16 18 17 16 19 19 16 15 15 18 18 17 18 19 19 21 21 20 21 22 22 22 22 22 22 22 23 24 24 22 22 21 20 21 17 10 12 15 17 18 18 18 18 18 17 17 16 16 15 15 15 14 15 14 14 15 14 14 14 14 14 14 14 14 13 13 13 13 13 13 13 13 12 12
18 18 15 15 17 16 14 16 17 16 17 18 17 18 16 15 18 19 18 17 16 18 18 16 18 20 19 21 21 21 21 23 24 24 21 20 22 24 23 23 23 22 22 21 20 19 13 9 14 18 18 19 19 19 19 18 18 17 16 16 16 15 15 15 15 14 14 14 14 14 14 14 14 14 14 14 13 13 13 13 12 12 12 12 12 11
18 19 16 13 15 15 14 16 17 15 15 17 17 17 17 18 19 18 18 19 17 17 18 17 17 18 19 20 21 22 23 24 23 22 21 22 22 23 22 23 23 22 22 21 21 22 15 11 17 20 19 20 20 19 20 19 18 17 17 16 16 16 16 16 15 14 14 14 14 14 14 14 14 13 13 13 13 13 12 12 12 12 12 11 11 11
18 19 17 13 13 15 15 16 17 16 15 16 16 16 17 18 19 18 18 18 18 18 18 18 18 18 19 19 22 24 24 25 23 21 22 23 22 23 22 22 22 22 22 21 21 22 16 13 18 20 19 20 20 20 20 19 19 18 17 16 15 15 15 15 14 14 14 14 14 14 13 13 13 13 13 13 13 12 12 12 12 12 11 11 11 11
18 19 18 14 13 14 16 16 16 16 17 16 17 17 17 17 17 17 17 16 18 19 18 18 19 20 19 19 22 24 23 24 23 22 22 22 22 22 21 22 21 21 21 20 20 21 15 13 18 19 18 19 19 19 19 19 19 19 18 17 16 15 15 14 14 14 14 14 13 13 13 13 13 13 13 12 12 12 12 12 12 11 11 11 10 10
18 17 17 15 13 15 16 15 15 16 17 17 17 17 17 17 17 17 17 16 16 18 18 18 18 19 20 20 22 23 22 22 22 22 22 22 22 22 20 21 21 20 21 20 19 19 14 12 16 17 17 18 18 18 18 18 18 17 17 18 17 16 15 15 15 14 14 13 13 13 13 12 12 12 12 12 12 12 12 12 11 11 11 10 10 10
17 16 16 15 14 15 16 14 13 14 16 16 17 17 17 17 17 18 18 17 17 17 16 17 17 19 20 20 22 22 21 21 21 21 22 21 20 21 20 21 20 20 20 18 17 15 10 10 14 16 16 17 16 17 17 16 16 16 17 17 16 16 16 15 15 14 14 13 13 13 12 12 12 12 12 12 12 12 12 12 11 11 10 10 10 10
17 17 17 16 14 14 15 14 13 14 15 16 16 16 16 16 17 18 17 17 18 17 17 17 17 19 19 18 19 20 19 20 19 19 20 21 20 19 19 19 18 18 18 17 18 15 10 11 15 15 15 15 15 16 16 16 16 17 17 17 17 17 16 15 15 14 14 13 13 12 12 12 12 12 11 11 11 12 11 11 11 10 10 10 9 9
18 17 17 16 15 15 15 15 15 14 15 16 16 16 16 17 16 16 15 15 17 18 18 17 17 18 19 17 18 19 20 21 20 18 19 21 20 19 19 19 19 19 20 20 21 20 17 15 15 14 15 15 15 16 17 17 17 17 18 18 18 18 17 16 15 14 14 13 13 13 12 12 12 11 11 11 11 11 11 11 11 10 10 10 9 9
17 17 17 16 16 15 15 15 15 15 14 15 16 16 16 16 16 16 17 16 17 17 17 17 18 19 19 19 20 20 20 21 21 20 20 21 20 19 20 21 21 21 21 20 20 20 19 17 13 13 15 16 17 19 19 18 18 18 18 19 19 18 18 16 15 14 14 13 13 13 13 13 13 13 12 12 11 11 11 11 10 10 10 9 9 9
17 17 17 17 17 16 16 16 15 15 15 15 15 16 15 15 16 17 17 16 17 17 16 16 18 18 19 19 20 19 19 20 20 20 21 21 21 20 19 20 20 19 19 19 19 19 19 19 15 12 15 17 19 20 20 19 19 19 19 19 19 18 17 17 15 14 14 13 13 13 13 14 15 16 16 15 13 12 11 11 10 10 10 9 9 9
17 17 16 17 17 16 17 16 14 14 16 16 15 15 15 15 15 16 16 17 17 16 16 16 17 17 18 19 19 19 19 19 19 20 20 20 21 21 20 20 19 19 18 18 19 19 19 19 17 12 13 17 18 18 19 19 19 19 19 19 19 18 17 17 15 14 14 13 13 13 14 15 15 16 16 16 15 13 11 11 10 10 10 9 9 8
17 17 15 15 16 15 15 15 14 14 16 16 15 15 15 14 14 15 16 16 17 16 17 18 17 17 18 18 18 18 19 19 19 19 19 19 19 20 19 19 19 18 18 18 18 19 18 18 17 13 12 14 15 16 17 19 19 19 19 19 19 18 18 17 15 14 14 13 13 14 16 16 15 14 13 13 12 12 11 10 10 9 9 9 9 8
16 16 15 15 15 14 14 14 14 15 15 14 15 15 15 14 14 14 15 16 16 15 16 16 15 15 16 16 16 17 18 18 18 18 18 17 18 18 18 18 18 18 18 18 18 18 17 16 14 11 11 13 13 15 16 17 18 18 18 18 18 18 17 16 14 14 13 13 14 15 16 15 13 12 11 10 10 10 9 9 9 9 9 9 8 8
15 15 14 14 15 15 14 14 13 14 14 14 14 14 14 14 13 13 13 14 14 14 15 15 14 14 15 16 16 17 17 17 17 17 17 16 16 16 16 17 18 18 18 17 17 16 15 15 12 9 10 12 13 15 15 16 16 16 16 17 17 17 16 15 14 14 13 13 14 15 15 13 12 11 10 10 9 9 9 9 9 8 8 8 8 8
15 14 13 14 14 14 15 14 13 12 13 13 13 14 14 13 13 12 13 13 14 14 15 14 14 15 16 17 17 17 16 17 17 17 16 16 16 16 17 17 17 17 16 16 15 14 14 15 13 10 9 12 13 14 14 14 14 14 15 16 16 16 15 14 14 13 13 14 14 14 13 13 12 11 10 10 10 9 9 8 8 8 8 8 8 7
14 13 13 13 13 13 14 14 13 12 12 12 13 14 14 13 13 13 13 13 14 14 14 14 15 16 17 16 17 16 16 16 17 16 15 15 16 16 16 15 14 14 14 14 13 13 13 12 11 9 10 11 12 12 12 12 12 13 14 15 15 15 15 14 14 13 13 14 13 13 13 12 10 10 10 10 10 9 8 8 8 8 7 7 7 7
13 13 12 12 13 13 13 13 13 12 12 14 15 15 15 15 14 14 14 14 14 14 14 15 15 16 16 16 16 16 16 16 16 14 13 13 14 15 14 13 13 13 12 12 12 11 10 9 9 10 10 11 11 11 12 12 12 12 13 13 14 15 15 14 14 13 13 13 13 12 12 11 10 9 9 9 8 8 7 7 7 7 7 7 6 6
12 12 11 11 12 12 12 12 12 13 14 14 15 16 16 16 15 15 15 15 15 14 14 15 15 16 16 16 16 16 15 15 14 13 11 11 11 12 12 12 11 12 11 11 11 10 8 7 8 9 10 11 11 11 12 12 12 12 13 13 13 13 14 14 13 13 12 12 12 12 11 10 9 9 8 8 7 7 7 7 6 6 6 6 6 6
11 11 11 11 12 12 11 11 12 14 14 14 14 15 14 14 15 14 14 14 15 15 15 15 15 16 16 16 15 14 13 12 12 11 9 9 10 10 10 11 11 10 10 9 9 8 7 8 8 8 9 10 10 10 11 11 11 11 12 12 12 12 12 12 12 13 12 12 11 11 10 9 9 8 8 7 7 6 6 6 6 6 5 5 5 5
11 11 11 11 12 12 12 12 13 14 14 14 15 14 13 14 14 14 14 14 14 13 14 14 15 15 15 14 14 12 11 12 13 12 10 9 9 9 8 9 9 9 8 7 7 8 8 9 9 9 9 9 10 10 9 9 9 9 10 11 11 11 11 11 11 12 12 12 12 11 10 9 8 8 7 7 6 6 6 6 6 6 5 5 4 4
10 11 11 11 12 12 12 12 12 12 12 14 15 15 14 15 15 15 14 14 12 10 11 12 13 13 13 13 12 12 12 14 14 12 11 10 10 9 8 7 7 7 7 7 8 8 9 9 9 9 9 9 9 10 9 8 8 8 8 9 10 10 10 10 10 11 12 12 12 11 10 9 8 8 7 6 6 6 6 6 6 5 5 5 4 4
9 10 10 10 11 11 11 11 12 12 13 14 15 15 13 13 15 15 13 13 12 9 9 11 12 11 11 11 11 12 14 14 13 11 11 11 9 8 8 7 6 6 7 8 7 7 8 8 8 8 9 8 9 9 9 8 8 7 7 8 8 8 8 9 10 10 10 10 10 10 9 9 8 8 7 6 6 6 6 6 5 5 5 4 4 4
9 9 9 9 10 11 10 11 12 12 13 14 14 14 12 12 14 14 13 12 11 9 9 11 11 10 10 10 11 12 13 12 11 11 11 9 7 6 6 6 6 6 7 8 8 8 8 7 7 7 7 8 8 8 8 8 7 7 7 7 6 6 7 8 9 9 8 8 9 9 9 9 8 8 7 7 6 6 5 5 5 4 4 3 3 3
9 9 9 10 10 10 10 11 11 12 14 14 14 13 12 13 13 13 12 12 11 9 9 10 11 10 10 10 10 11 11 11 10 10 9 8 7 6 6 6 6 6 6 7 7 7 7 7 6 6 6 7 7 7 7 7 6 6 6 6 5 6 7 7 7 7 7 8 8 8 8 8 8 7 7 6 6 5 5 4 4 4 3 3 2 1
9 9 9 10 10 10 10 10 10 11 13 13 13 12 12 13 13 12 11 10 10 10 9 9 10 10 9 10 10 10 10 10 9 8 8 7 7 7 5 5 6 6 6 6 6 6 6 5 5 5 6 6 6 5 6 5 5 5 5 4 5 6 7 6 6 6 7 7 7 7 7 7 7 6 6 5 5 4 4 4 3 3 2 2 1 1
10 10 10 10 10 10 10 10 10 11 12 12 12 12 11 12 12 11 10 8 8 10 10 9 10 10 10 10 10 9 9 9 8 8 7 7 7 6 5 4 4 4 5 5 6 6 5 5 5 5 5 6 5 5 5 4 4 4 4 4 5 6 6 5 5 5 5 6 6 6 6 6 6 5 5 4 4 3 3 3 2 2 1 1 0 -0
10 10 10 10 11 10 9 10 10 12 11 10 11 12 11 10 10 9 9 9 8 9 9 10 10 10 10 10 10 9 9 8 8 8 7 7 7 6 5 4 4 4 5 5 5 5 5 4 4 4 5 6 6 5 5 4 4 3 3 4 5 5 5 5 5 4 4 5 5 5 5 5 4 4 4 3 3 3 2 2 1 1 0 0 -0 -1
11 10 10 11 11 10 10 11 10 10 10 9 9 10 10 9 9 9 10 10 9 8 9 9 10 10 10 10 9 9 9 8 8 7 7 6 6 5 5 5 4 4 5 4 4 5 4 4 4 4 4 5 5 5 5 4 3 3 3 4 4 4 4 4 4 3 3 3 4 4 4 3 3 3 3 3 2 2 1 1 0 -0 -1 -1 -1 -1
10 9 10 11 11 10 10 10 8 8 9 9 9 8 8 8 8 9 10 10 10 9 9 9 10 10 9 9 9 9 9 8 7 6 6 5 5 4 4 4 4 4 4 4 4 4 4 3 3 3 3 4 4 4 4 4 3 3 3 4 4 3 3 3 3 3 3 3 3 3 3 2 2 2 2 2 2 1 1 1 0 -1 -1 -2 -2 -2
9 9 10 11 11 10 10 9 8 9 9 9 9 8 7 7 7 8 10 9 9 9 8 8 8 8 8 7 8 7 7 7 6 6 5 4 4 3 2 2 3 3 3 3 3 3 3 3 2 2 2 2 3 3 3 3 3 3 4 4 3 3 3 2 2 2 2 2 2 2 2 2 1 1 1 1 0 0 0 0 -0 -1 -1 -2 -2 -3
10 9 10 10 10 10 9 8 7 8 8 7 7 8 8 8 8 8 8 7 6 6 5 4 4 6 6 6 5 6 5 5 5 5 4 3 3 2 2 2 2 2 2 3 3 3 2 2 2 1 1 1 2 2 2 2 3 3 3 3 3 3 2 1 1 1 1 2 1 1 1 1 0 0 0 0 -0 -0 -1 -1 -1 -1 -1 -1 -2 -2
9 9 9 9 9 9 8 7 7 8 8 7 6 7 7 7 8 7 6 5 4 5 4 3 2 2 3 3 3 3 3 3 3 3 2 2 2 1 1 1 1 1 1 2 2 2 2 1 1 1 1 1 1 1 1 2 2 2 2 3 3 2 1 1 1 1 1 1 1 0 0 -0 -1 -1 -0 -1 -1 -1 -1 -1 -1 -1 -1 -1 -1 -1
8 9 8 8 8 9 9 8 7 8 9 7 6 6 5 5 5 5 4 3 3 2 2 2 2 1 0 1 1 1 2 2 1 1 0 0 0 0 0 0 0 0 0 0 0 1 1 1 1 1 0 1 1 1 1 1 1 1 2 2 2 1 1 1 0 -0 -0 -0 -0 -0 -1 -1 -1 -1 -1 -1 -2 -2 -2 -2 -2 -2 -2 -2 -2 -2
8 9 8 8 8 8 8 8 8 8 9 7 5 3 1 1 3 3 2 0 -1 -2 -2 -0 1 1 -0 -1 -0 -0 -0 -1 -1 -1 -1 -1 -1 -1 -1 -1 -1 -1 -1 -1 -1 -1 -0 -0 0 -0 -0 -0 -0 -0 -0 -0 0 1 1 1 1 0 0 -0 -1 -1 -1 -1 -1 -1 -1 -1 -2 -2 -2 -2 -3 -3 -3 -3 -3 -3 -2 -2 -2 -2
Height
808 813 819 819 818 817 816 816 817 822 823 824 828 831 833 832 832 834 832 831 831 831 831 832 833 831 825 820 816 814 817 817 814 811 809 808 807 806 805 803 801 800 795 792 795 795 795 796 797 798 800 801 803 805 807 808 809 810 811 813 814 816 818 820 821 823 824 826 827 829 829 828 830 832 834 835 836 838 838 840 842 843 844 845 847 848
810 818 819 812 812 814 816 818 819 823 825 824 826 828 833 835 832 833 833 830 832 832 831 834 833 827 822 818 813 814 815 811 808 807 804 803 804 804 802 800 798 796 793 791 793 793 793 794 794 796 797 798 800 801 803 804 805 807 809 810 812 813 816 817 818 819 820 821 822 822 823 824 827 828 830 831 832 834 836 837 839 840 842 842 843 845
818 820 814 809 816 819 819 820 818 820 823 824 828 828 831 836 835 834 832 830 833 832 830 834 833 823 819 817 811 811 811 805 803 803 801 800 801 801 799 796 795 794 792 790 790 790 790 790 791 793 794 795 796 797 799 801 802 805 806 808 810 811 813 814 815 817 817 818 820 822 823 824 826 826 827 829 830 832 833 834 836 837 839 840 840 841
823 817 810 812 817 817 819 822 818 820 824 825 827 828 831 838 837 832 831 832 834 836 834 835 833 822 816 814 806 806 809 804 801 801 799 799 798 795 793 792 792 791 789 788 788 788 788 788 789 790 790 791 793 795 797 799 800 802 803 804 806 808 810 812 813 814 816 818 821 822 823 825 825 826 827 829 830 830 831 831 833 833 835 837 838 839
816 814 813 814 815 814 817 822 819 819 826 830 828 826 829 834 834 833 834 834 835 839 838 835 830 818 812 811 801 801 808 802 798 799 796 796 795 792 790 789 788 786 786 786 785 785 787 787 787 786 787 789 791 792 793 795 797 797 799 801 803 805 807 809 811 813 816 817 819 821 822 824 824 825 826 826 826 826 827 828 828 829 831 834 836 837
812 814 814 813 815 816 816 819 819 819 826 830 828 826 826 826 829 833 833 833 836 839 841 840 836 821 811 810 803 798 802 797 794 796 791 788 788 789 788 785 784 786 786 786 784 783 785 784 784 784 785 787 788 789 790 792 794 795 797 799 801 803 805 807 809 811 813 815 816 817 819 820 820 821 820 820 820 821 823 824 826 828 830 832 833 834
814 814 813 811 814 817 817 819 821 822 827 830 829 830 830 827 828 831 831 835 840 842 845 847 844 833 816 808 804 802 801 796 792 790 785 784 785 785 786 784 784 785 783 783 782 782 782 782 782 783 783 785 785 786 788 791 793 794 796 797 799 801 802 805 807 809 811 812 813 814 814 815 816 816 815 816 818 820 821 823 825 827 828 830 831 832
814 814 815 813 815 818 818 819 822 822 825 829 831 833 831 827 829 832 832 836 843 844 846 846 845 843 829 812 809 809 803 797 791 786 782 784 786 784 784 784 782 781 780 781 781 780 781 781 781 781 781 783 784 785 788 790 791 793 794 796 797 799 800 802 804 806 807 808 810 811 812 813 813 813 813 816 818 819 820 822 823 824 825 827 828 829
815 813 813 813 816 820 819 821 824 820 822 830 834 835 833 831 833 835 834 839 849 849 844 844 846 847 834 814 813 814 805 798 790 784 782 783 784 783 782 781 779 780 781 782 781 781 781 780 780 781 781 782 784 785 787 789 790 792 793 795 796 797 799 800 802 803 805 806 807 809 810 810 810 812 814 816 817 818 819 820 820 822 823 824 825 826
818 817 815 813 814 817 822 829 828 819 821 831 836 835 835 838 839 840 840 840 849 851 843 840 842 843 830 811 810 811 802 796 790 786 786 785 784 782 780 779 779 781 782 782 782 781 780 780 780 781 782 783 784 786 787 789 791 792 793 794 795 796 797 799 800 801 803 804 805 806 807 807 809 810 813 814 815 816 817 817 818 818 819 820 821 822
820 820 819 817 816 819 825 831 831 825 826 829 831 831 834 839 840 844 848 846 848 849 842 843 845 844 835 813 804 803 796 794 791 787 788 786 783 782 780 780 781 781 781 781 782 781 780 781 781 781 782 784 785 786 788 789 790 791 792 793 794 795 796 797 798 799 801 802 803 804 804 805 807 809 810 811 812 813 813 813 814 814 815 816 817 819
819 818 820 821 821 824 822 826 831 832 830 828 827 831 835 841 845 847 851 851 851 847 842 851 853 848 841 817 799 798 796 797 796 789 787 785 783 783 782 781 781 781 781 781 781 781 782 782 781 782 783 784 785 786 787 788 789 791 792 793 793 793 795 795 797 798 799 800 801 801 802 803 805 806 807 808 808 809 809 809 810 811 812 812 813 815
820 820 823 822 822 821 818 824 833 832 830 830 830 835 842 851 854 851 854 858 855 847 846 854 851 842 834 814 796 792 790 793 796 790 788 786 783 783 782 782 782 783 782 782 783 783 783 783 782 783 783 784 785 786 787 788 789 790 791 792 792 792 793 794 795 796 797 798 798 799 800 801 803 804 804 804 804 805 806 806 807 808 809 809 810 811
823 825 825 822 822 819 815 823 832 833 833 831 829 834 842 854 860 856 861 865 855 847 850 855 848 835 822 806 796 790 786 790 793 790 789 788 785 784 783 784 784 784 783 783 784 784 784 784 783 783 784 784 785 785 787 787 788 789 790 791 791 791 792 793 794 794 795 795 796 797 798 799 800 800 800 801 801 802 803 804 805 805 806 807 807 808
826 827 821 819 819 818 816 817 820 824 831 831 829 833 835 840 846 848 851 849 844 845 852 854 842 823 808 798 795 793 790 793 794 791 791 789 788 788 787 786 785 784 784 784 784 784 784 784 784 784 784 784 784 785 786 787 788 788 789 789 790 790 791 792 792 793 793 793 794 795 796 796 797 797 798 798 799 800 801 802 803 803 804 804 805 805
826 822 817 817 817 815 815 816 815 820 830 836 837 836 834 830 832 843 852 850 849 851 850 847 833 816 806 796 792 793 791 792 794 791 789 786 787 789 786 784 784 784 784 784 784 784 784 784 784 784 784 784 785 785 786 786 787 787 788 788 788 789 789 790 790 790 790 791 792 792 793 793 794 795 795 796 796 798 799 800 800 800 801 801 802 803
824 822 820 820 819 817 817 816 817 819 825 835 838 833 834 834 828 837 856 861 859 850 841 839 827 813 809 798 788 791 788 784 786 786 787 788 786 786 785 782 782 783 784 785 785 785 784 784 783 783 783 784 784 784 785 785 786 787 787 787 787 787 788 788 788 788 788 789 789 790 790 791 792 792 792 793 794 795 796 797 797 798 798 799 799 800
814 819 823 822 819 820 822 819 819 821 822 830 834 829 832 838 833 832 844 854 859 853 840 836 828 815 814 805 791 791 790 783 781 783 789 791 786 784 785 783 783 784 785 786 786 786 785 784 783 783 783 783 783 783 783 783 785 785 785 786 786 785 785 785 785 786 786 787 787 787 787 788 789 790 791 791 792 793 794 794 794 795 795 795 797 798
804 811 823 829 824 822 823 821 822 825 824 824 826 825 828 834 836 838 841 844 852 855 840 832 831 821 815 806 792 788 788 782 783 787 788 787 785 785 784 783 783 784 785 786 785 785 785 783 783 783 782 782 782 781 781 782 782 783 783 783 783 783 783 783 784 784 784 784 784 784 785 786 787 788 789 790 791 791 791 790 791 791 792 792 794 794
801 806 819 829 828 825 824 822 824 826 826 826 825 827 828 829 830 834 839 838 840 848 842 831 825 813 806 802 790 784 782 778 783 788 786 784 784 783 783 783 784 785 785 786 786 786 786 784 783 783 782 781 781 781 781 781 781 780 781 781 781 781 781 781 782 782 782 782 782 783 783 784 786 786 787 788 788 788 787 787 788 788 789 790 791 791
800 804 814 828 832 828 823 820 821 820 822 824 824 827 829 831 833 833 837 838 834 837 841 836 823 805 798 796 784 778 780 779 783 787 785 785 784 783 784 784 785 787 787 787 787 787 786 784 784 783 782 780 780 780 780 780 780 779 779 779 779 779 779 779 780 780 780 780 781 781 781 782 784 784 785 786 786 785 785 785 785 785 787 787 787 788
798 805 814 827 831 824 816 816 817 814 812 815 817 821 822 825 831 834 838 841 836 833 835 836 826 803 789 788 781 779 783 783 785 786 784 785 784 784 785 785 787 787 786 786 787 787 787 785 785 783 780 778 778 779 779 779 779 778 777 776 777 777 776 776 777 778 779 779 779 779 779 781 782 782 783 783 782 782 782 782 783 783 784 784 784 786
795 805 813 820 824 819 815 818 821 816 812 814 815 816 817 820 822 825 831 834 834 835 834 837 831 802 782 783 781 779 784 784 785 785 784 785 786 786 785 785 786 786 785 786 786 787 787 784 782 779 776 776 777 777 778 777 777 776 774 774 774 774 774 774 775 776 777 777 777 777 778 778 779 779 780 779 778 778 778 779 780 781 782 782 782 783
794 802 808 815 820 818 815 817 820 818 815 817 818 817 818 820 817 818 824 826 826 828 829 836 832 803 784 788 786 785 788 787 788 789 786 785 787 788 788 787 787 786 784 783 782 782 781 778 777 776 775 775 775 776 776 775 774 774 772 772 772 771 771 771 772 773 774 774 774 775 775 775 775 776 776 775 775 775 775 777 778 779 780 780 780 781
791 798 804 814 821 821 821 820 818 818 818 816 815 816 815 816 820 823 827 829 826 819 819 828 823 800 789 792 789 788 787 783 785 789 786 784 785 786 786 784 784 782 780 780 780 780 779 777 777 776 775 774 774 774 774 772 772 771 770 770 770 769 769 769 770 770 770 771 771 771 771 771 772 772 772 771 771 771 772 774 775 776 777 777 778 778
787 793 796 805 814 817 818 816 812 813 817 816 812 813 813 814 817 818 821 827 825 816 817 821 810 794 791 790 786 786 787 783 783 785 784 783 784 785 785 783 782 783 783 784 784 784 783 781 779 776 774 773 773 772 771 770 770 769 768 768 767 767 767 767 767 767 767 768 767 767 767 766 766 767 767 768 768 768 769 771 772 773 773 774 775 775
785 789 789 791 796 799 798 798 801 805 809 811 809 809 812 813 812 813 817 821 815 814 819 814 801 794 792 788 787 788 788 785 785 785 783 782 783 785 787 786 786 786 787 787 786 785 784 781 778 777 775 773 772 770 769 769 768 767 766 766 765 765 765 764 764 764 764 764 764 764 763 762 761 761 761 762 763 765 766 767 768 768 769 771 772 772
783 787 789 788 788 791 791 792 800 802 799 801 804 806 810 812 813 814 814 808 805 814 815 803 801 801 791 785 790 792 789 787 786 786 785 784 784 785 786 786 786 787 787 786 785 784 783 781 779 777 775 773 771 770 769 768 767 766 765 764 764 763 762 762 762 761 762 761 761 760 759 758 758 757 757 757 758 759 761 762 763 764 766 768 768 768
780 784 789 790 792 796 796 797 801 800 797 798 801 803 807 812 814 811 806 800 801 810 803 792 799 801 785 782 791 790 787 787 786 786 786 786 787 786 786 786 785 785 785 784 784 782 781 780 779 777 775 774 772 771 769 768 766 765 764 762 762 761 760 760 759 758 759 758 757 756 754 754 754 755 755 755 755 755 756 757 759 761 763 764 764 764
780 784 790 792 794 796 798 800 800 798 800 802 802 803 805 807 808 806 802 800 802 806 799 796 804 800 787 788 793 789 786 786 787 788 787 787 788 787 787 787 785 784 784 782 781 780 780 780 779 778 777 774 773 771 769 767 765 764 762 761 760 759 758 758 757 756 756 755 754 752 752 752 752 753 753 753 753 754 754 755 756 758 759 760 760 761
781 787 791 791 794 795 795 799 802 801 801 801 802 803 803 803 806 807 806 806 807 807 801 802 807 799 786 787 789 787 787 786 785 786 786 786 789 790 789 787 784 783 782 781 780 780 781 780 779 777 776 774 772 770 769 767 765 763 762 760 759 758 757 756 755 754 753 752 750 750 750 750 750 750 750 750 751 752 752 753 754 755 756 756 757 758
782 791 794 793 796 795 791 795 803 805 806 806 804 802 800 801 804 805 805 804 803 802 802 806 805 791 781 783 783 783 786 786 782 783 786 788 788 787 785 784 784 784 783 782 783 782 781 780 779 777 776 774 772 770 769 767 765 763 761 759 757 756 755 754 752 751 750 749 748 748 747 747 747 747 746 746 747 747 748 750 751 751 752 752 753 754
785 790 794 796 798 796 791 794 799 804 810 808 797 790 792 796 797 798 799 798 796 797 800 802 794 782 779 784 783 780 783 785 784 784 787 787 784 783 783 784 786 786 785 785 785 784 782 781 780 778 776 774 772 770 768 766 764 762 760 758 756 754 753 751 750 749 747 746 745 745 745 745 745 744 743 743 744 744 745 746 746 747 747 748 749 751
788 790 795 799 799 796 795 797 800 804 802 791 778 776 781 786 788 791 792 789 789 791 791 789 784 779 779 781 780 778 779 783 785 787 789 788 786 785 786 787 788 787 786 786 785 784 784 781 780 778 775 773 771 769 767 765 763 761 759 757 755 753 752 750 748 747 745 743 743 742 742 742 742 741 741 742 742 743 743 743 743 744 745 746 747 748
789 793 797 800 799 798 800 802 802 796 786 777 772 771 772 774 777 781 781 779 782 786 786 784 782 778 775 774 775 777 779 783 785 788 790 791 790 789 789 789 789 788 787 786 785 783 782 781 779 777 774 772 771 768 766 764 762 759 757 756 754 752 751 749 747 745 744 742 741 740 740 740 739 739 739 740 741 741 741 741 741 742 743 744 744 745
786 791 794 796 796 797 802 803 795 782 775 775 773 771 772 774 777 781 782 779 777 779 781 781 778 773 772 773 774 778 783 786 787 789 792 793 791 791 791 790 789 789 788 787 786 783 781 780 779 777 775 772 770 769 766 764 762 759 756 754 753 751 749 748 745 743 742 741 739 739 738 738 737 737 737 737 738 738 738 738 738 739 740 741 741 742
783 785 789 792 792 791 793 793 786 781 778 774 768 768 771 773 773 778 781 778 776 778 778 777 775 773 774 776 778 782 785 784 784 787 790 791 791 791 792 791 789 788 787 786 785 783 781 780 778 776 774 772 770 768 766 764 762 759 756 754 752 750 748 746 743 741 740 739 738 737 737 736 735 735 734 735 735 734 734 734 735 735 736 737 738 738
785 784 784 786 786 787 789 788 787 789 784 771 763 764 766 766 766 770 774 776 779 783 782 777 776 777 778 779 780 781 780 778 782 787 787 788 789 788 789 790 789 788 787 784 783 782 780 778 777 775 773 771 769 767 765 763 761 758 755 752 750 749 747 744 742 740 739 737 736 735 735 734 733 733 732 732 731 731 731 731 731 732 733 733 734 735
789 787 787 788 786 787 791 788 785 783 776 764 760 762 766 767 765 768 778 779 778 784 786 781 780 783 783 783 781 779 776 777 784 790 788 787 788 788 787 787 786 785 785 784 782 781 779 778 776 774 772 770 767 766 764 762 759 757 754 751 750 748 745 743 741 740 738 736 735 733 733 732 731 730 730 729 729 729 729 729 729 730 731 731 732 733
792 790 792 794 789 787 790 788 781 776 769 763 762 764 768 769 766 772 783 782 777 783 786 781 781 784 785 785 784 780 780 782 786 789 788 787 789 788 787 786 785 784 783 781 781 780 778 778 776 773 772 769 767 765 763 761 758 755 753 751 749 747 744 742 741 739 737 735 733 732 730 730 729 728 727 727 727 727 728 728 728 729 729 730 731 731
790 790 790 790 787 786 787 787 782 774 765 761 763 765 767 768 771 776 778 775 776 783 784 782 782 784 785 785 784 783 784 786 787 788 787 788 789 788 786 785 785 784 782 780 779 778 776 775 774 772 770 769 767 765 763 760 757 754 752 750 748 745 743 742 739 737 735 733 731 730 729 728 727 726 725 725 725 726 726 726 727 727 728 728 729 730
783 785 785 785 785 785 784 785 785 776 763 759 763 767 768 769 772 774 772 774 778 780 782 784 783 783 785 785 784 785 785 785 787 788 787 787 787 786 786 784 783 782 781 779 777 776 774 773 771 769 767 766 765 763 761 759 756 753 751 749 746 744 742 740 738 735 733 731 729 727 726 726 725 724 724 724 724 724 724 724 725 725 726 727 728 728
773 777 781 779 779 782 784 787 786 774 763 761 764 765 767 766 767 769 773 779 781 779 781 783 781 781 783 783 783 785 785 785 786 786 785 785 784 784 784 783 781 780 778 777 776 774 773 770 767 765 762 761 761 760 758 757 754 751 750 746 743 742 740 738 736 733 731 729 727 726 724 723 723 722 722 722 722 722 722 723 723 724 725 725 726 727
768 771 775 771 770 778 783 780 773 763 760 764 764 761 764 767 768 771 774 778 781 782 781 781 780 781 782 781 782 784 784 784 784 784 783 783 782 782 781 780 779 778 775 775 773 772 771 768 765 762 759 757 757 756 755 754 751 749 747 744 741 740 737 735 733 731 729 727 726 724 723 721 721 720 720 720 721 721 721 721 722 723 723 724 725 725
759 761 765 761 760 768 769 764 763 763 764 768 766 764 767 770 772 773 773 775 779 782 782 781 780 780 781 781 782 782 781 781 781 782 783 782 780 780 779 776 776 775 774 773 771 770 768 766 763 760 757 755 755 753 752 751 749 746 742 740 739 737 735 733 731 729 727 726 724 723 722 720 719 718 718 718 719 719 719 720 720 721 722 723 723 724
757 760 760 757 757 761 762 763 767 768 766 766 767 769 771 772 773 774 774 775 777 778 780 780 779 779 781 782 782 781 781 781 781 781 782 782 781 780 778 775 773 772 771 770 769 767 765 763 761 759 756 753 752 751 749 748 747 744 740 737 736 735 732 731 729 727 726 724 723 722 721 719 718 717 717 717 717 717 717 718 718 719 720 721 722 722
760 761 759 757 759 761 761 764 767 767 766 767 769 771 773 774 775 776 775 776 778 778 780 781 780 781 783 782 782 783 782 783 783 782 782 782 781 780 779 777 774 772 770 769 768 766 765 762 760 758 755 751 749 749 747 745 744 742 739 735 733 732 730 728 727 725 724 723 722 721 720 719 718 717 716 716 715 716 716 717 717 718 718 719 720 720
755 758 759 759 759 760 763 766 769 769 769 771 772 772 773 775 775 776 778 779 781 782 783 784 784 784 784 784 785 785 784 785 785 783 781 781 780 779 778 777 774 772 770 768 767 765 763 761 759 757 754 750 747 746 745 742 740 739 737 734 731 729 727 726 725 723 722 721 720 719 718 718 717 716 716 715 714 714 715 715 715 716 715 716 716 717
755 757 760 760 760 762 765 770 772 769 768 772 774 774 774 775 775 777 780 781 782 783 784 785 786 786 786 786 786 785 785 785 784 783 782 781 779 778 776 774 773 771 769 768 766 764 762 760 757 754 751 748 746 744 742 739 737 736 734 732 730 728 725 723 722 721 720 719 718 717 716 716 715 715 715 714 713 713 713 713 714 714 714 714 715 715
756 755 759 762 762 761 761 764 767 765 764 770 775 775 776 778 778 778 780 782 783 785 785 785 785 786 787 787 786 786 785 783 783 783 782 780 778 778 775 773 772 769 767 766 765 763 761 758 756 752 748 745 743 742 740 737 734 733 731 730 728 726 723 721 720 719 717 716 716 715 713 713 713 713 714 714 713 713 712 712 712 713 713 714 715 715
753 751 755 758 759 758 758 761 763 763 763 769 776 779 780 781 780 780 783 785 787 789 789 788 787 786 787 787 787 786 786 784 783 782 780 778 777 776 774 773 770 768 766 765 762 760 758 756 753 751 747 742 740 739 737 734 731 730 729 727 726 724 722 720 718 716 714 714 713 712 711 710 709 710 711 712 713 713 712 711 711 711 712 713 714 715
Wind_Speed
4 4 2 5 7 7 7 7 6 5 6 7 5 5 4 4 2 3 3 4 2 3 5 5 5 9 10 11 12 10 6 4 8 9 9 9 8 8 9 10 10 10 12 13 15 20 24 29 33 34 35 34 32 33 34 35 37 38 38 39 39 39 38 38 38 38 38 38 37 37 39 40 39 39 38 38 38 38 37 37 37 38 37 37 39 40
5 5 6 7 9 8 6 6 7 6 5 6 6 5 2 2 2 2 2 4 1 2 4 3 4 10 11 11 12 8 7 7 10 10 11 11 10 8 9 12 11 9 10 9 10 15 20 24 28 31 31 31 31 32 34 36 38 38 37 38 39 39 38 38 39 39 39 40 40 39 40 40 39 39 40 40 40 39 38 37 36 37 37 38 40 40
4 2 9 8 6 5 4 5 7 7 5 5 4 4 2 1 1 3 3 4 3 1 4 5 5 11 11 11 12 10 9 9 9 9 10 10 9 8 10 11 11 9 10 10 10 13 18 23 26 28 29 32 33 33 35 36 37 37 37 37 38 38 39 39 39 39 40 40 39 37 35 35 36 37 39 39 38 38 37 37 36 36 36 38 39 40
2 5 8 5 6 7 6 4 7 6 4 4 4 4 2 2 1 1 4 4 3 1 2 4 5 10 8 6 10 9 7 7 8 8 10 9 9 11 11 10 10 11 12 11 10 11 14 18 21 25 29 31 32 31 32 34 35 36 37 38 38 38 39 39 39 39 39 37 35 34 31 30 31 33 34 35 35 36 37 37 37 37 36 37 39 39
4 6 3 5 5 7 7 4 7 6 1 1 3 5 3 2 3 3 2 2 3 3 3 4 5 7 5 5 7 6 3 6 5 4 8 8 9 11 10 10 11 11 11 10 11 9 9 14 20 25 28 28 29 30 33 35 36 37 38 39 39 38 38 38 38 38 37 34 33 32 29 26 27 28 29 31 34 36 37 39 39 38 36 37 40 41
5 5 3 7 5 5 7 4 4 7 3 2 2 5 6 6 5 2 2 5 4 4 4 5 4 6 6 5 7 6 5 6 5 4 8 9 9 8 9 11 9 7 8 8 10 9 8 13 19 22 22 23 27 31 34 35 36 37 37 37 37 37 38 38 38 38 38 36 34 33 31 28 27 28 30 33 36 37 37 38 38 37 36 36 39 40
2 2 4 7 6 6 6 3 3 5 6 1 3 5 6 7 7 3 1 3 1 3 3 4 3 5 7 5 8 6 6 8 8 7 10 9 8 7 8 8 6 5 7 8 9 8 8 11 14 17 20 23 28 32 33 33 33 34 34 34 35 36 37 37 37 38 38 38 37 36 36 34 32 32 34 36 35 34 36 36 35 35 36 37 38 37
2 3 5 6 7 6 5 2 4 6 7 2 3 6 7 7 6 4 4 3 2 3 4 4 4 3 6 6 7 5 5 9 10 10 11 8 8 8 7 7 7 8 7 6 7 7 7 9 12 16 20 23 27 28 28 29 31 32 33 33 33 34 36 36 36 37 38 39 39 38 37 36 36 36 36 34 32 31 32 33 34 35 36 37 38 38
2 4 4 5 6 4 4 4 5 7 6 4 4 7 6 6 7 5 6 3 1 2 5 5 2 2 6 7 6 5 4 8 9 10 10 8 8 8 7 8 8 6 4 3 6 6 7 9 12 15 17 20 23 24 25 27 29 29 30 30 31 32 34 34 35 35 37 38 38 38 37 37 37 37 35 31 30 30 29 31 34 35 36 37 38 40
1 4 6 7 5 4 4 2 3 6 4 3 6 7 5 6 6 5 5 3 2 2 5 6 3 3 6 7 4 3 3 6 8 8 8 8 8 7 6 6 4 5 4 1 2 3 4 5 8 11 13 15 17 20 21 23 24 26 27 28 29 30 32 32 33 34 35 36 37 37 38 37 36 35 33 31 29 29 29 30 32 34 36 37 38 40
2 1 2 4 3 5 5 3 1 3 5 6 7 7 6 6 5 4 3 3 2 3 7 7 4 2 4 6 4 3 4 4 3 5 7 6 7 6 5 5 5 5 4 4 4 3 3 3 3 4 8 10 12 15 18 19 21 23 24 26 28 29 30 30 31 33 34 35 36 38 38 37 36 34 33 32 31 30 31 32 33 35 36 37 38 39
5 3 1 1 1 4 6 5 4 4 5 6 5 5 4 4 5 4 4 3 1 5 6 5 2 3 4 6 4 5 6 4 3 4 6 5 5 6 5 5 5 5 5 5 5 5 5 4 3 2 3 6 9 12 15 17 19 20 22 24 26 28 28 29 30 31 33 34 36 37 37 37 36 35 34 35 35 35 34 35 35 35 35 36 37 38
2 1 2 3 0 4 6 5 5 6 6 6 5 6 4 1 3 3 3 0 3 6 4 3 1 3 6 8 8 11 9 6 6 6 6 4 2 4 6 6 6 5 5 5 5 5 5 5 5 4 4 5 7 10 13 15 17 18 20 22 24 27 27 28 29 30 31 33 35 36 37 37 36 36 36 37 38 38 37 37 36 36 36 36 36 37
1 4 3 1 1 2 6 6 3 0 1 4 5 5 4 3 1 3 4 2 4 5 3 3 2 3 5 4 9 13 8 4 5 6 6 6 5 5 6 6 6 6 5 5 4 5 5 5 7 7 7 8 9 10 12 14 16 17 19 21 24 26 26 26 28 29 30 32 34 35 36 36 36 37 38 39 39 38 38 38 37 37 36 36 37 37
4 4 3 4 2 3 5 5 6 7 4 4 4 6 5 5 5 4 4 3 4 3 3 4 2 3 2 2 6 9 7 3 4 6 4 5 6 5 6 6 6 6 5 5 5 5 6 8 9 9 10 12 13 13 14 15 16 17 19 21 23 25 25 26 27 28 30 32 33 34 35 36 36 37 38 39 39 38 38 37 37 37 37 37 38 37
4 4 6 2 1 7 7 4 5 7 2 2 3 5 3 5 5 2 3 5 3 1 3 2 3 5 4 6 8 6 6 5 4 5 4 5 6 4 5 6 5 5 5 5 5 6 7 8 9 10 11 13 15 16 17 17 17 19 20 21 23 25 25 26 27 29 30 31 32 33 34 35 36 37 37 38 38 37 37 37 37 37 37 37 37 37
2 3 5 2 2 3 5 3 3 4 3 2 2 3 5 4 7 4 2 0 3 1 4 1 4 5 3 6 8 5 7 7 4 3 2 4 6 6 5 6 5 5 5 5 5 6 7 8 9 10 11 13 14 16 17 19 19 20 21 22 23 25 26 26 28 29 30 31 32 33 34 35 36 36 37 37 37 37 36 36 36 36 36 36 35 35
5 2 4 1 2 4 0 3 2 2 4 5 3 6 3 2 4 4 1 3 3 2 5 1 5 5 2 5 6 6 3 7 5 5 1 1 3 3 5 6 5 5 5 5 6 6 7 9 11 11 12 13 14 14 16 17 18 20 22 23 24 26 26 28 29 30 30 31 32 34 34 35 36 36 36 36 36 35 35 35 36 35 35 35 34 33
5 2 5 1 3 4 4 3 0 3 3 5 4 3 4 2 1 2 2 2 1 3 5 4 4 4 4 6 4 3 4 8 5 5 3 2 2 3 3 2 3 5 4 5 5 5 7 9 11 11 10 11 11 12 13 14 16 19 22 24 25 26 27 27 29 29 30 31 33 34 34 35 35 35 35 35 35 34 34 35 35 35 35 34 32 31
4 4 4 2 1 1 3 2 5 1 3 3 2 2 3 2 4 3 3 3 3 3 3 4 5 4 6 6 6 7 8 8 4 2 2 3 3 5 2 3 2 4 4 5 5 5 7 9 10 10 10 9 8 9 11 12 14 16 19 22 25 27 27 28 29 29 30 32 33 34 34 34 34 34 34 34 34 34 35 35 34 34 34 33 32 31
3 3 4 2 2 1 2 4 7 7 5 3 3 4 2 1 2 2 1 3 4 4 3 3 5 6 6 4 8 10 9 6 2 2 5 5 6 7 2 4 4 5 5 5 5 6 7 9 12 12 11 10 9 10 11 13 15 16 17 20 23 26 28 29 29 29 31 31 31 33 34 34 34 33 33 33 34 34 35 34 34 33 32 32 31 30
2 3 4 2 1 3 5 5 6 9 8 6 6 7 7 4 4 3 3 1 2 3 4 3 5 8 5 4 6 7 6 6 6 7 6 6 6 6 2 4 6 6 6 6 5 5 7 10 15 14 10 9 10 11 12 14 16 17 16 17 20 24 28 30 29 29 30 31 31 32 33 33 33 33 33 34 34 35 35 35 34 32 32 31 31 30
3 4 4 3 3 6 7 5 4 5 4 2 3 5 6 4 5 6 5 4 1 2 3 3 3 7 3 4 5 6 6 6 6 6 5 4 5 3 3 3 4 5 6 6 5 6 8 11 13 10 10 11 12 12 12 14 16 15 15 15 17 22 26 28 28 28 29 30 31 31 31 32 33 33 33 34 35 36 35 35 33 32 31 31 30 29
3 4 4 1 3 4 5 5 2 1 1 2 2 2 5 3 3 5 5 4 3 4 3 3 5 6 2 0 3 3 3 3 3 3 4 3 2 3 4 5 5 5 6 6 4 4 6 11 13 12 14 15 12 12 13 14 14 15 15 16 17 21 24 25 26 27 28 29 30 30 30 32 32 33 34 35 36 36 35 34 32 31 31 31 30 29
4 3 4 3 1 3 4 3 3 2 1 3 3 3 5 5 5 4 2 3 2 6 7 5 7 6 3 3 1 3 3 3 2 2 2 4 1 2 4 4 3 4 6 8 9 9 11 13 13 15 18 17 14 14 14 14 15 16 17 17 19 22 23 23 24 26 27 29 30 30 30 32 32 33 35 36 37 37 35 34 32 31 31 31 31 30
5 4 5 6 6 6 6 5 5 3 2 2 3 6 7 7 9 5 2 3 4 6 7 6 9 8 2 1 3 6 6 5 5 6 3 3 3 4 5 6 7 7 8 9 9 9 10 10 12 16 19 19 20 21 19 18 19 19 19 20 21 23 23 24 24 26 27 29 30 31 32 32 32 33 36 37 37 37 36 34 33 32 32 32 31 31
4 3 6 9 10 10 8 7 5 5 6 5 6 8 9 9 10 7 4 6 8 5 4 7 11 12 8 4 3 4 5 4 6 6 6 6 5 4 4 5 5 6 7 8 8 8 9 10 12 15 19 22 26 26 24 22 23 23 22 23 24 24 24 24 25 26 27 29 31 32 34 34 34 34 35 36 37 37 36 35 34 33 33 32 32 32
4 3 6 8 8 7 6 5 5 7 9 10 9 9 10 9 10 10 9 11 8 4 8 12 9 11 17 12 6 3 3 5 6 5 5 6 6 6 5 6 7 8 8 8 8 9 10 11 11 13 19 24 26 27 27 27 27 25 25 27 27 25 25 25 25 26 27 29 31 33 35 36 37 37 36 36 36 37 37 36 35 34 32 32 32 33
5 4 4 5 4 4 5 5 5 6 5 6 7 9 10 9 11 13 16 16 10 8 12 13 8 11 19 10 4 6 7 6 6 6 5 4 5 6 7 8 9 9 8 9 9 9 10 10 9 11 18 22 24 25 27 27 28 28 28 28 27 26 25 25 25 26 27 29 32 34 36 37 38 38 37 36 36 36 37 36 34 33 32 32 33 33
3 3 2 5 3 3 5 5 5 5 3 2 4 7 8 10 13 15 16 14 9 7 12 10 5 11 15 5 4 6 8 6 5 5 5 5 5 6 7 8 9 9 9 10 10 10 9 8 9 12 16 20 22 23 24 26 27 28 28 28 27 26 25 24 24 25 27 29 32 35 36 37 37 36 35 34 34 35 34 33 33 32 32 33 33 33
2 2 1 4 2 4 5 6 5 6 5 3 4 5 8 10 11 11 10 6 4 7 11 9 9 13 10 3 4 7 6 6 7 7 7 6 3 4 6 8 9 10 10 10 9 8 8 8 9 11 14 18 20 22 23 25 26 27 27 27 27 26 25 23 23 24 26 30 32 34 35 36 36 34 34 33 33 33 33 32 32 32 33 33 34 34
2 1 2 4 2 5 4 6 5 5 5 3 7 9 11 10 7 6 6 6 7 9 9 6 9 13 6 3 5 5 5 6 10 8 5 5 2 6 8 8 8 8 9 9 8 8 8 8 9 11 14 18 21 22 23 24 25 26 26 26 26 26 24 23 23 24 26 29 31 33 34 35 34 33 34 34 33 33 33 32 32 33 33 34 35 35
4 3 1 3 3 5 3 4 5 5 4 5 10 13 14 10 8 7 5 7 10 9 6 6 9 11 6 2 6 8 5 6 9 6 2 2 5 7 6 4 5 6 7 7 7 7 8 9 10 13 16 19 21 22 23 24 24 25 26 25 25 25 25 24 23 24 26 28 30 31 33 33 33 33 34 34 34 32 31 31 32 34 34 35 35 34
5 5 2 3 3 5 2 5 4 3 6 8 7 10 13 13 13 11 10 12 12 9 7 8 8 10 9 6 9 12 9 5 3 2 3 2 2 4 4 4 5 6 6 6 7 6 7 10 14 17 18 20 21 23 25 24 24 25 25 25 25 24 25 25 25 25 27 28 29 29 30 31 31 33 33 32 31 30 29 31 32 33 33 33 33 33
7 6 4 3 3 2 2 5 3 8 8 5 2 6 12 15 16 15 15 15 12 10 10 10 11 13 13 13 11 8 5 3 4 5 6 6 4 5 6 5 5 6 7 8 7 8 9 12 15 18 21 23 24 25 26 25 25 26 26 26 25 25 25 25 25 26 28 29 29 28 28 29 30 31 31 30 29 28 29 30 31 31 31 31 32 33
9 7 3 3 3 2 3 5 7 5 2 3 4 4 4 5 7 8 10 12 11 11 11 12 14 15 14 12 8 4 3 1 4 5 4 5 4 4 5 6 6 5 6 7 8 11 14 16 17 19 21 24 25 26 26 25 25 26 26 25 24 24 25 25 26 27 28 29 30 29 28 27 28 29 29 28 28 28 29 30 30 30 30 30 31 32
7 6 4 4 4 3 4 7 5 3 5 6 6 4 3 4 6 7 6 7 5 6 8 10 13 12 9 7 5 5 2 1 3 1 1 4 4 2 1 4 7 7 9 12 13 15 18 20 20 21 22 24 27 27 25 25 25 25 25 25 24 24 24 25 26 28 28 30 30 30 28 27 26 27 27 27 27 28 30 30 30 30 30 30 31 31
2 3 4 6 5 4 5 6 4 3 7 9 6 4 4 6 8 9 6 4 2 3 3 5 6 4 3 4 6 5 3 1 2 2 5 6 7 6 3 4 8 9 11 15 17 18 20 22 22 23 24 25 27 27 26 27 26 25 25 26 25 24 25 25 27 27 28 30 30 30 28 27 26 27 27 27 28 29 30 29 30 30 30 30 31 31
2 1 0 2 3 3 4 5 4 5 6 7 5 3 4 5 8 8 4 4 3 4 2 3 5 4 4 3 5 4 3 2 2 3 6 7 7 8 7 7 10 12 14 16 17 18 20 21 22 24 25 25 27 28 28 28 28 26 26 27 26 25 26 27 27 27 28 29 29 28 28 26 26 26 26 27 28 29 29 28 28 28 28 29 29 30
4 2 1 3 4 4 4 4 3 3 4 5 4 2 2 3 9 8 4 5 4 5 3 5 7 4 4 3 3 5 4 2 4 4 6 6 7 9 8 8 10 14 17 19 19 19 20 20 20 22 23 24 26 27 28 28 29 28 28 28 27 26 27 28 28 27 27 27 27 27 27 26 26 26 27 27 28 27 27 27 27 26 27 27 28 27
3 3 4 6 6 6 6 4 3 3 5 6 6 4 3 5 6 5 7 4 5 6 4 5 7 5 4 4 2 2 3 4 5 5 6 6 6 9 11 12 13 15 17 19 20 21 20 20 20 21 22 23 24 25 25 25 26 28 29 28 28 29 30 30 30 29 28 27 26 26 26 25 25 25 26 26 26 26 25 25 25 25 26 26 26 25
4 3 4 6 6 6 6 4 3 4 4 5 4 3 4 5 3 5 4 2 5 6 4 4 5 5 5 4 4 4 4 5 4 5 6 6 5 7 9 13 15 15 16 17 19 20 21 21 21 21 24 24 23 23 24 23 24 26 27 27 28 31 33 32 31 30 28 26 26 25 24 24 24 24 24 24 24 24 24 23 24 24 25 25 25 24
5 4 3 5 5 4 4 4 5 4 3 4 4 2 2 5 5 4 3 2 3 5 5 4 4 4 4 4 4 5 5 5 5 5 6 6 6 6 8 11 12 14 16 17 18 20 21 22 22 25 28 29 27 25 24 21 23 26 26 27 31 33 32 32 31 29 27 26 25 24 23 22 22 22 22 23 22 23 23 22 22 23 23 24 24 23
5 5 3 4 4 4 4 5 4 3 2 3 4 4 4 4 4 5 6 3 3 3 4 4 4 5 5 5 5 5 5 5 5 5 5 6 6 6 8 10 12 14 17 18 19 22 22 22 24 27 31 32 31 29 26 22 22 24 26 29 33 33 32 32 31 28 26 25 24 23 22 21 20 20 21 21 21 21 21 21 22 22 23 24 24 23
5 5 5 4 4 4 5 5 3 2 1 1 2 4 5 5 4 5 6 5 3 4 4 4 4 5 5 4 4 4 4 5 5 5 5 6 7 7 10 13 15 16 18 20 22 23 23 23 24 26 29 32 32 31 30 26 24 25 28 31 32 31 31 31 30 28 27 26 24 23 21 20 19 19 19 20 20 21 22 22 22 22 22 23 23 22
3 3 4 3 2 3 3 2 2 2 1 1 2 3 5 5 3 5 6 3 3 5 4 3 3 4 3 3 2 3 5 6 6 6 6 6 7 8 11 16 19 21 22 23 24 26 27 27 26 25 27 31 31 30 31 30 27 27 32 34 33 30 29 29 28 27 26 26 24 22 21 20 19 19 19 19 20 22 23 23 24 24 23 23 22 21
2 2 3 1 2 3 3 3 6 5 2 1 2 3 5 4 2 3 4 2 2 3 2 1 1 2 1 2 2 4 5 5 6 7 6 5 6 7 9 13 18 21 23 24 25 26 26 24 24 24 26 30 32 30 31 32 31 30 33 35 33 30 28 27 26 26 26 25 24 22 21 20 20 19 19 19 19 21 22 23 24 24 24 24 23 21
2 3 3 2 3 3 3 3 3 2 2 1 3 3 4 5 2 1 1 2 2 2 2 3 3 2 2 1 3 5 5 4 4 6 7 6 6 7 8 12 16 20 23 25 26 27 25 23 23 24 25 28 31 32 32 33 34 33 34 34 32 28 26 26 25 25 26 25 23 22 21 20 20 19 19 19 20 21 22 23 24 25 26 27 27 26
2 3 3 3 3 1 2 3 1 2 4 3 4 4 3 4 2 1 4 5 6 6 5 5 5 4 4 3 4 4 4 5 4 5 6 7 6 8 11 15 18 20 22 23 25 26 26 25 26 26 27 29 30 31 32 34 35 35 34 34 31 27 25 25 25 25 25 24 23 22 21 20 20 20 20 20 21 21 22 23 25 26 26 27 28 28
3 4 3 3 3 3 3 4 4 3 1 1 4 4 2 2 2 3 5 7 7 6 6 6 6 5 5 6 6 5 5 5 5 5 6 7 7 10 14 17 19 21 22 23 24 25 25 26 26 27 29 31 31 29 30 33 36 36 35 33 30 26 25 25 25 25 26 25 23 22 21 20 20 20 19 20 20 20 20 20 22 24 23 23 25 26
5 6 5 5 5 5 5 6 5 4 3 3 5 5 2 3 4 6 6 5 5 5 5 4 5 5 5 6 8 7 6 7 9 9 8 8 11 15 17 18 19 20 22 24 24 24 25 26 27 27 30 33 34 32 32 34 35 34 33 32 30 26 25 25 24 25 26 25 24 23 22 21 20 20 19 19 19 19 18 17 17 19 20 21 21 22
Wind_Direction
87 103 157 184 194 193 190 176 148 148 141 134 124 108 139 168 233 254 261 290 120 127 265 243 247 264 266 271 267 273 285 246 250 257 254 253 248 246 245 248 246 241 248 253 248 241 236 233 231 230 230 228 226 224 222 220 220 220 219 219 219 219 218 217 216 216 215 214 214 216 218 220 220 220 221 222 223 225 225 225 224 223 223 225 226 224
67 124 208 217 204 190 178 164 124 102 89 97 121 109 90 160 217 254 249 293 30 125 269 318 305 271 259 263 265 262 268 255 237 236 245 245 243 246 246 249 249 250 261 265 256 246 238 236 233 229 227 225 223 222 220 220 221 220 218 218 220 219 217 217 218 217 216 215 213 213 215 218 218 217 218 220 222 224 226 226 226 225 225 224 223 224
54 189 232 229 193 138 109 133 114 99 90 83 113 120 106 201 242 297 300 315 16 104 272 341 325 277 264 259 262 251 239 248 240 229 239 245 244 246 243 246 251 258 265 261 256 248 239 236 233 228 225 224 224 224 221 221 221 219 218 219 219 219 218 218 218 218 219 218 216 215 217 218 218 219 220 221 224 224 226 228 228 228 227 226 223 222
124 246 241 207 153 110 87 119 113 96 83 86 110 129 197 253 159 287 305 322 2 66 272 328 305 280 285 279 270 259 239 253 259 240 242 244 238 241 242 243 243 246 253 256 257 251 242 239 233 228 225 224 223 222 221 220 220 219 219 220 219 219 220 219 218 218 219 218 216 216 219 221 222 224 224 224 226 226 227 229 230 231 229 227 226 225
200 253 221 118 118 115 104 109 124 126 80 30 131 140 174 209 165 184 303 344 1 15 24 7 326 289 310 329 290 288 285 268 276 279 267 255 240 245 254 251 241 239 246 254 257 254 241 235 232 229 226 223 219 219 221 221 221 221 221 221 221 221 221 220 219 218 216 215 214 215 218 222 224 226 226 224 225 226 226 229 230 232 231 228 228 228
229 257 135 110 93 100 114 124 156 153 140 313 222 168 168 163 155 175 4 37 31 344 343 30 1 291 309 319 276 297 334 297 299 317 277 263 253 247 250 254 254 255 253 250 257 260 244 234 234 233 228 221 219 221 223 223 223 223 223 222 222 222 222 223 222 220 218 217 217 217 216 218 219 221 223 223 224 224 225 227 229 231 231 228 226 224
233 336 91 121 114 99 109 133 200 146 114 256 234 164 145 126 122 135 70 62 74 258 298 57 109 266 303 297 265 289 333 309 302 295 276 271 273 258 248 262 275 263 248 243 251 256 250 239 234 233 228 220 222 226 225 224 224 224 224 224 223 223 224 224 224 223 221 220 220 220 220 220 220 222 225 227 228 229 228 228 228 229 229 227 227 226
182 68 63 88 90 96 114 154 203 132 112 228 227 129 123 120 130 137 111 108 212 246 322 19 119 239 290 270 269 301 327 312 303 290 285 286 283 275 264 264 256 241 239 241 251 258 257 244 232 232 230 225 226 228 225 223 223 224 225 226 225 225 225 226 226 225 224 223 222 222 223 224 224 226 230 231 230 232 233 230 228 228 227 227 228 230
162 142 155 118 88 109 169 206 193 121 101 234 190 126 127 129 133 120 100 103 13 13 316 311 130 194 273 272 301 339 318 298 293 286 295 305 300 291 275 259 252 258 265 239 244 261 266 255 244 240 239 235 231 229 227 225 225 225 226 227 227 227 227 227 227 227 226 226 225 224 224 226 228 229 232 233 233 233 234 234 231 229 229 228 228 229
98 181 187 134 118 176 188 225 189 120 101 181 131 97 75 73 79 77 93 111 35 10 256 250 192 195 268 285 311 341 277 265 272 283 291 299 303 298 287 286 304 330 346 349 245 260 273 275 266 254 248 246 238 232 231 230 228 228 228 228 228 229 230 229 229 229 228 227 226 226 226 227 229 230 231 233 234 234 234 236 235 232 231 230 230 230
322 254 192 111 138 181 146 101 106 107 118 125 93 64 46 32 34 44 59 85 66 288 254 241 220 186 272 281 257 220 222 212 245 306 307 315 331 334 328 331 338 340 346 355 344 343 12 11 323 274 253 252 248 239 235 233 232 232 232 231 232 233 233 232 232 230 230 229 228 228 228 229 230 230 231 231 232 233 233 235 235 235 234 233 232 233
353 32 314 328 132 129 97 69 32 27 76 93 81 75 63 355 9 20 2 41 161 255 262 255 229 150 222 261 255 244 253 225 202 292 294 307 339 338 327 313 308 313 320 329 330 337 360 9 1 348 256 251 250 243 238 236 236 235 235 236 236 236 235 235 234 232 232 231 231 231 231 232 232 232 232 232 232 233 232 234 235 235 235 234 234 234
15 45 287 317 201 132 101 74 29 8 35 73 89 90 86 332 2 352 307 318 223 246 268 278 231 189 228 248 254 260 262 229 210 234 242 233 257 300 299 292 292 304 306 311 317 318 326 322 309 302 276 258 248 244 242 240 239 238 239 239 240 240 238 237 236 234 233 233 233 233 233 233 234 234 235 235 235 235 235 236 236 236 236 236 235 235
310 312 307 45 301 189 129 127 129 77 93 124 138 129 130 146 141 263 269 277 260 261 285 293 272 261 273 264 245 250 252 207 217 250 234 218 229 253 272 283 299 311 303 294 297 294 288 279 276 275 273 271 262 253 249 245 243 243 242 241 243 244 242 239 237 236 235 235 236 235 235 236 235 236 236 237 238 238 238 239 238 239 239 240 241 241
175 276 234 169 215 195 167 172 157 149 161 175 154 136 152 162 163 210 222 218 249 278 298 295 267 208 221 297 246 242 261 258 255 283 277 247 251 268 292 298 305 305 295 289 289 279 266 263 264 265 265 267 267 262 256 252 248 246 245 244 244 246 244 241 239 237 237 237 237 237 237 237 237 238 239 240 241 241 242 242 242 243 244 245 247 247
151 249 253 251 193 167 178 209 135 118 128 231 125 110 178 188 148 148 196 181 186 295 292 266 238 215 205 278 277 264 287 288 245 265 311 298 290 334 329 298 294 292 285 289 290 279 273 270 265 263 265 267 267 264 259 255 252 249 248 247 247 248 246 243 241 239 239 239 238 238 238 238 239 239 240 241 242 243 244 245 246 247 248 249 250 251
134 270 282 345 360 173 170 179 138 133 171 180 139 178 218 174 119 110 242 324 75 254 268 214 247 289 336 293 296 316 296 295 291 268 249 270 303 350 329 286 291 291 280 279 273 272 284 289 284 276 273 271 267 265 263 261 258 255 254 251 250 250 247 245 243 241 240 240 239 240 239 240 240 240 241 242 243 245 246 247 248 249 251 251 251 252
152 238 292 125 189 270 206 124 66 34 133 131 182 210 199 84 85 110 198 347 36 250 274 251 238 281 323 272 317 14 272 255 288 320 337 221 289 311 272 267 284 285 288 293 281 279 287 290 292 288 281 277 273 271 270 268 264 259 256 253 252 252 249 248 246 244 242 241 241 242 241 242 242 242 243 244 246 247 247 248 248 249 250 251 252 253
148 180 302 42 178 287 359 107 91 347 94 134 189 181 115 122 197 113 154 201 174 245 279 292 268 257 212 232 299 6 210 218 252 328 17 110 188 247 254 277 301 291 297 300 294 299 296 289 291 288 281 280 278 278 279 276 270 263 258 254 252 253 254 253 250 247 245 244 243 245 244 245 245 245 246 247 247 248 247 248 249 249 250 251 252 252
146 172 263 315 208 305 24 145 197 235 55 76 111 113 96 146 170 160 163 165 170 208 255 301 313 266 229 215 201 217 230 236 273 345 131 175 247 270 241 134 223 266 273 288 297 294 287 286 288 280 272 272 273 278 279 276 272 270 266 260 255 255 255 254 252 250 249 248 246 247 247 247 247 247 248 249 249 249 248 249 249 249 251 252 252 252
120 172 218 299 332 170 182 211 187 172 159 145 162 173 171 101 114 164 183 122 142 170 200 274 292 267 252 206 183 208 232 240 241 176 191 224 263 272 244 157 201 241 249 260 263 268 285 290 281 268 258 254 252 258 262 263 265 265 267 265 261 258 256 256 255 253 252 251 250 249 249 249 249 249 250 250 250 250 251 251 250 250 252 252 252 251
151 164 170 162 222 198 228 245 194 184 185 170 180 194 186 160 128 151 238 249 133 166 177 194 270 268 241 195 190 199 204 204 186 173 202 246 258 268 261 177 204 225 240 247 243 258 275 265 258 257 257 255 252 253 255 257 258 258 263 269 265 260 258 258 258 257 256 255 253 252 252 252 252 251 251 251 250 251 252 252 251 251 251 251 250 250
127 108 128 171 215 216 240 261 216 210 216 165 187 195 174 160 139 152 208 236 189 218 172 131 273 273 226 178 182 171 176 192 187 172 184 228 245 273 308 283 268 270 270 267 250 238 242 251 261 273 278 270 260 260 261 259 260 263 273 277 269 264 262 259 258 258 258 257 256 255 254 254 254 253 252 251 251 251 252 252 252 251 250 249 249 249
120 108 132 209 303 310 305 318 344 12 180 207 238 170 152 172 155 152 181 181 177 214 167 128 251 268 314 224 164 151 183 176 173 186 151 138 197 237 267 273 272 270 275 285 289 286 298 314 322 311 291 281 271 268 270 268 271 280 287 286 278 275 272 264 259 257 256 256 256 256 255 255 255 254 253 253 252 253 252 252 252 251 250 249 248 248
196 175 138 130 352 334 330 320 308 321 216 202 225 188 170 151 117 110 133 132 213 225 179 179 241 251 311 319 81 46 23 61 34 281 138 101 68 310 312 300 304 326 336 342 339 332 328 329 322 301 292 294 295 290 285 283 288 293 296 294 287 283 279 271 262 257 255 254 254 253 253 254 254 254 254 254 254 254 253 253 252 251 250 249 247 247
185 184 157 161 190 208 209 211 219 216 180 203 219 196 189 166 151 157 146 150 230 230 174 187 242 245 271 61 80 42 30 26 352 331 347 21 360 349 338 328 340 347 339 328 321 318 316 309 298 291 293 300 305 304 300 300 303 304 302 300 294 286 281 275 266 259 255 253 252 252 251 251 252 254 255 255 255 255 254 253 252 251 249 248 247 247
144 191 194 191 207 211 200 212 211 151 150 200 212 190 192 192 180 168 146 189 217 220 192 221 239 250 255 210 159 27 20 341 318 329 329 320 322 321 295 287 305 309 302 303 302 301 300 294 290 292 295 299 301 302 301 305 309 308 306 304 300 290 282 277 269 261 257 254 251 252 253 253 253 255 257 257 256 255 254 253 251 250 248 247 246 246
120 210 212 195 218 217 175 182 188 160 176 202 199 188 194 194 182 180 200 216 207 188 239 239 220 242 257 240 204 241 284 280 282 281 277 285 297 295 282 284 291 291 293 295 289 287 287 286 290 293 293 296 299 300 302 308 313 313 309 306 303 295 287 281 272 263 259 255 251 252 256 257 257 256 257 257 255 253 252 251 249 248 247 246 245 245
136 211 213 163 201 218 162 145 148 158 181 190 183 188 191 186 185 196 214 222 201 190 241 244 192 221 255 255 172 202 232 236 238 240 245 261 275 276 279 289 292 290 291 288 281 279 277 277 283 288 292 297 302 304 307 312 315 314 310 306 304 299 294 287 275 266 262 256 253 257 261 261 258 256 256 255 252 250 249 247 247 246 245 244 244 244
142 207 200 138 152 221 200 170 141 140 133 131 175 185 182 189 198 205 219 225 212 220 254 264 235 240 256 259 146 204 237 246 239 241 254 257 259 271 283 286 284 282 281 277 274 274 278 285 291 296 300 301 302 304 307 309 311 310 308 307 305 303 300 292 279 272 265 258 259 263 264 261 259 257 257 256 253 250 248 247 246 245 243 243 243 243
166 204 112 108 141 245 215 184 156 145 154 204 231 209 198 206 211 217 226 222 207 244 259 274 281 268 260 216 210 227 224 251 267 257 255 264 258 246 254 258 264 272 275 277 283 293 304 307 302 300 299 298 300 304 306 308 311 311 310 310 310 310 307 298 286 277 269 266 267 268 265 262 260 258 258 258 256 253 251 249 247 244 243 242 242 241
125 164 57 90 186 249 214 182 175 135 127 216 250 234 221 215 211 213 211 194 196 223 246 265 269 267 259 177 251 254 172 212 264 270 279 309 281 222 233 244 257 269 280 291 305 315 314 307 304 306 307 307 311 314 315 317 318 316 316 316 316 316 311 301 292 283 277 274 273 270 266 263 261 259 258 257 256 254 252 248 245 243 242 240 239 238
123 125 87 122 191 256 239 163 162 130 130 232 242 232 226 222 217 215 215 214 205 198 216 236 242 260 270 185 249 270 231 227 270 290 314 296 248 243 255 278 288 289 297 309 316 316 313 314 315 313 314 316 319 322 324 326 323 320 320 320 318 315 310 303 296 287 283 281 277 272 269 265 262 260 259 258 256 254 250 246 243 241 240 239 238 237
149 148 165 150 185 252 234 114 119 188 222 240 233 210 213 223 224 224 230 229 214 192 207 237 248 265 272 247 247 266 272 269 294 360 21 355 303 311 335 349 337 326 322 323 322 315 314 317 320 322 324 327 328 329 331 331 328 324 322 320 318 315 311 305 298 292 287 284 280 276 272 268 263 261 261 259 257 254 250 246 244 242 240 238 236 234
166 168 180 166 167 224 148 117 185 225 227 245 232 183 202 220 225 228 239 241 230 215 220 239 250 254 258 260 261 272 304 349 82 82 43 26 38 36 11 349 339 336 329 329 327 320 318 321 323 326 330 332 333 334 334 333 332 328 323 321 319 315 311 307 300 295 291 288 285 282 276 270 265 263 262 260 258 254 250 247 244 242 240 237 236 235
168 167 168 170 174 165 137 175 220 244 294 308 279 226 193 206 211 224 251 258 246 231 227 233 244 249 254 265 280 324 357 30 108 109 73 48 61 60 19 335 323 325 318 315 311 310 316 323 323 324 327 331 332 333 333 333 331 327 323 321 319 314 311 308 302 298 296 293 291 289 283 276 270 266 263 259 256 252 249 246 244 241 239 237 236 235
165 160 159 183 196 193 194 209 229 307 314 277 258 236 172 152 159 177 226 259 259 243 233 230 240 255 267 283 320 352 352 77 88 98 35 36 28 26 4 302 304 308 308 311 315 316 321 325 327 328 330 331 332 333 333 331 329 325 322 320 319 316 312 306 301 301 300 298 296 295 290 284 276 270 265 259 254 250 248 246 243 241 237 234 233 231
159 182 186 193 198 185 198 222 222 229 251 249 234 214 197 179 165 164 193 242 291 307 264 217 218 255 337 350 339 336 327 3 44 314 322 350 347 336 334 309 305 307 310 315 321 325 328 332 333 333 332 331 332 335 334 330 328 325 320 319 319 317 311 304 301 302 302 300 299 298 294 289 282 275 268 261 255 252 250 246 243 240 236 233 231 230
154 263 248 210 213 174 181 219 215 203 243 256 241 239 240 196 148 136 173 237 234 257 275 116 118 104 74 18 347 21 38 293 261 280 306 321 328 327 325 318 318 320 321 322 323 323 326 330 331 330 331 331 332 336 337 331 328 323 318 318 318 314 306 302 303 305 303 300 298 296 293 288 283 277 270 264 259 255 252 248 244 240 236 233 231 231
164 155 163 218 227 199 191 221 227 218 252 244 215 220 244 157 124 130 215 239 199 222 233 129 126 132 122 104 37 64 91 210 231 254 282 302 319 314 305 304 311 316 319 323 327 326 325 326 326 324 326 328 330 335 336 332 327 322 318 318 316 308 304 305 308 308 303 298 295 292 289 286 281 276 270 266 262 259 254 249 245 239 234 230 228 227
169 171 193 207 217 214 214 229 245 247 244 220 206 206 174 124 112 166 223 216 171 204 217 147 149 168 146 127 114 120 175 206 218 255 282 302 311 303 301 304 305 308 312 318 325 329 326 325 324 320 320 324 327 331 333 331 324 318 317 316 311 307 309 312 312 308 303 298 294 290 287 283 279 275 271 267 263 259 253 248 242 236 231 226 222 220
174 179 197 201 212 220 221 228 247 260 245 198 188 194 155 148 183 213 211 136 152 182 188 158 170 178 166 163 174 192 232 251 252 273 286 285 276 275 289 299 305 311 316 320 326 330 326 323 323 321 321 326 329 330 333 332 322 316 315 310 307 310 314 314 312 308 302 297 293 289 286 283 278 274 270 265 259 254 248 243 237 233 228 221 216 214
173 173 192 193 198 205 208 217 229 247 239 168 150 152 175 188 197 177 133 110 162 160 153 174 199 182 174 208 229 221 243 271 274 272 270 271 277 282 289 298 304 311 317 322 327 330 328 325 325 325 326 329 331 333 336 333 322 317 312 307 310 316 316 313 312 309 300 294 290 287 284 280 276 271 266 260 254 248 242 236 230 224 220 215 211 208
184 185 193 193 186 174 190 215 214 199 197 175 169 176 180 184 175 144 129 144 193 184 161 179 224 228 204 220 256 252 248 264 275 283 285 286 294 299 305 314 318 319 323 325 326 329 330 327 325 325 326 328 331 332 333 332 324 316 309 309 316 320 315 312 313 308 298 292 288 285 282 277 272 266 260 254 248 241 234 228 222 217 213 210 207 203
217 197 174 181 192 175 184 213 214 168 162 191 176 155 137 133 137 130 120 127 182 203 177 175 220 237 215 217 258 281 286 290 302 320 323 317 320 325 324 324 325 325 325 325 327 330 330 326 324 323 322 324 328 329 329 330 325 315 310 313 318 317 312 310 309 304 296 291 286 282 279 273 267 260 253 247 241 233 226 220 214 209 206 205 202 200
243 180 135 148 220 220 211 207 152 115 72 47 68 90 120 132 126 104 104 121 204 202 190 190 209 224 217 205 227 279 296 307 318 324 323 320 321 324 325 323 324 326 327 327 329 330 329 327 325 322 320 320 323 325 326 326 323 315 314 317 319 316 311 307 303 298 293 288 285 281 275 269 263 255 248 242 236 231 226 219 211 206 202 201 200 199
287 165 127 137 200 202 218 189 146 145 184 180 85 77 96 118 135 123 121 156 233 210 219 280 299 274 236 175 200 263 288 315 325 316 315 319 313 312 317 316 316 320 322 322 324 325 325 323 321 319 317 316 318 322 323 321 319 317 317 319 320 316 310 303 297 292 287 283 281 278 272 266 259 251 244 237 230 225 222 218 211 206 200 198 197 196
252 170 166 202 202 189 217 215 173 182 284 356 102 113 106 110 139 215 40 50 63 71 45 23 17 358 342 323 278 280 291 307 307 302 308 314 309 308 310 308 309 314 316 318 320 322 322 320 316 315 313 312 315 319 319 317 317 318 319 320 319 315 306 298 292 286 281 279 276 272 267 262 255 249 241 233 226 220 217 213 210 207 205 205 202 198
154 164 181 191 189 209 260 247 233 348 341 24 90 119 116 118 151 300 10 47 59 49 37 34 32 35 32 358 328 322 313 294 283 290 300 303 303 306 307 308 309 310 311 314 317 318 317 315 313 312 310 309 312 316 316 314 315 318 319 320 318 312 300 292 288 282 277 273 269 264 261 256 251 246 240 232 225 219 216 215 213 212 214 215 213 209
152 178 175 139 162 208 227 200 166 141 191 180 132 124 81 66 109 84 54 57 55 40 27 18 11 22 37 19 356 348 331 313 312 311 299 294 298 302 305 308 310 309 311 314 315 314 312 311 311 311 309 309 312 314 312 312 313 316 319 320 317 308 296 287 283 277 271 267 263 258 254 249 244 241 236 231 224 217 215 217 217 217 219 220 218 217
178 187 171 147 178 214 204 176 156 143 171 182 140 117 42 15 89 96 74 63 61 46 30 13 354 351 3 3 359 357 341 322 325 327 316 304 305 308 309 309 309 308 311 313 314 313 311 311 311 310 308 309 312 312 311 310 311 313 317 319 316 306 293 283 275 270 266 263 258 254 248 241 237 233 229 227 223 217 214 214 216 219 223 224 222 221